TimeCST,TemperatureF,Dew PointF,Humidity,Sea Level PressureIn,VisibilityMPH,Wind Direction,Wind SpeedMPH,Gust SpeedMPH,PrecipitationIn,Events,Conditions,WindDirDegrees,DateUTC
12:53 AM,35.1,24.1,64,30.11,10.0,South,9.2,-,N/A,,Clear,170,2013-01-08 06:53:00
1:53 AM,35.1,24.1,64,30.12,10.0,South,6.9,-,N/A,,Clear,170,2013-01-08 07:53:00
2:53 AM,37.0,24.1,59,30.12,10.0,South,10.4,-,N/A,,Clear,180,2013-01-08 08:53:00
3:53 AM,35.1,24.1,64,30.12,10.0,South,9.2,-,N/A,,Clear,180,2013-01-08 09:53:00
4:53 AM,35.1,24.1,64,30.11,10.0,South,10.4,-,N/A,,Clear,180,2013-01-08 10:53:00
5:53 AM,33.8,24.8,70,30.11,10.0,South,6.9,-,N/A,,Clear,170,2013-01-08 11:53:00
6:53 AM,30.9,23.0,72,30.12,10.0,South,6.9,-,N/A,,Clear,170,2013-01-08 12:53:00
7:53 AM,32.0,23.0,69,30.13,10.0,South,8.1,-,N/A,,Clear,170,2013-01-08 13:53:00
8:53 AM,37.9,25.0,60,30.13,10.0,South,6.9,-,N/A,,Scattered Clouds,170,2013-01-08 14:53:00
9:53 AM,46.0,27.0,47,30.13,10.0,South,13.8,-,N/A,,Clear,180,2013-01-08 15:53:00
10:53 AM,50.0,30.0,46,30.12,10.0,South,16.1,-,N/A,,Clear,190,2013-01-08 16:53:00
11:53 AM,52.0,34.0,50,30.08,10.0,SW,13.8,-,N/A,,Partly Cloudy,220,2013-01-08 17:53:00
12:53 PM,52.0,36.0,54,30.06,10.0,SSW,15.0,-,N/A,,Scattered Clouds,210,2013-01-08 18:53:00
1:53 PM,54.0,36.0,51,30.05,10.0,SSW,13.8,-,N/A,,Mostly Cloudy,200,2013-01-08 19:53:00
2:53 PM,55.9,34.0,44,30.06,10.0,SSW,15.0,-,N/A,,Clear,210,2013-01-08 20:53:00
3:53 PM,55.0,33.1,43,30.06,10.0,SSW,9.2,-,N/A,,Mostly Cloudy,210,2013-01-08 21:53:00
4:53 PM,54.0,35.1,49,30.07,10.0,South,9.2,-,N/A,,Overcast,190,2013-01-08 22:53:00
5:53 PM,53.1,36.0,52,30.10,10.0,SSW,10.4,-,N/A,,Overcast,200,2013-01-08 23:53:00
6:53 PM,48.0,45.0,89,30.13,5.0,SSW,10.4,-,0.03,Rain,Light Rain,210,2013-01-09 00:53:00
7:53 PM,46.9,45.0,93,30.14,5.0,South,8.1,-,0.05,Rain,Light Rain,190,2013-01-09 01:53:00
8:30 PM,46.4,46.4,100,30.14,2.5,South,6.9,-,0.07,Rain,Light Rain,180,2013-01-09 02:30:00
8:53 PM,46.0,46.0,100,30.16,2.5,South,6.9,-,0.08,Rain,Light Rain,180,2013-01-09 02:53:00
8:55 PM,46.4,46.4,100,30.14,4.0,South,6.9,-,0.01,Rain,Light Rain,170,2013-01-09 02:55:00
9:17 PM,46.4,46.4,100,30.15,5.0,South,6.9,-,0.01,Rain,Light Rain,180,2013-01-09 03:17:00
9:38 PM,46.4,46.4,100,30.15,4.0,South,6.9,-,0.04,Rain,Light Rain,170,2013-01-09 03:38:00
9:53 PM,46.9,46.9,100,30.16,7.0,South,8.1,-,0.04,,Overcast,170,2013-01-09 03:53:00
10:12 PM,46.4,46.4,100,30.16,8.0,South,5.8,-,N/A,,Overcast,180,2013-01-09 04:12:00
10:53 PM,46.4,46.4,100,30.18,8.0,South,4.6,-,N/A,,Overcast,180,2013-01-09 04:53:00
11:20 PM,46.4,46.4,100,30.20,7.0,SSW,3.5,-,N/A,,Overcast,200,2013-01-09 05:20:00
11:51 PM,46.4,46.4,100,30.21,6.0,South,3.5,-,0.00,,Overcast,180,2013-01-09 05:51:00
11:53 PM,46.0,46.0,100,30.22,6.0,South,3.5,-,0.00,,Overcast,190,2013-01-09 05:53:00